When you browse on this site, cookies collect data to enhance your experience and personalize the content and advertising you see.
Visit our Privacy Policy to learn more. By continuing to use the site, you agree to this use of cookies and data.
  • In Hungary
  • List of Countries
  • For 7 days
  • Water Temperature
  • Satellite Maps
  • Weather Map
  • News
  • Weather Widgets
  • user-avatar
    Login

    Hourly Weather Miglakasimahi

    Today, 19 November, Monday

    Time Temperature Precipitation Wind Pressure Humidity
    00:00 -1°C° 0 mm 2 mps 661 mmHg 81%
    01:00 -1°C° 0 mm 2 mps 661 mmHg 81%
    02:00 +1°C° 0 mm 1 mps 661 mmHg 80%
    03:00 +1°C° 0 mm 1 mps 661 mmHg 79%
    04:00 +1°C° 0 mm 1 mps 661 mmHg 78%
    05:00 +1°C° 0 mm 1 mps 661 mmHg 77%
    06:00 0°C° 0 mm 1 mps 661 mmHg 76%
    07:00 +1°C° 0 mm 1 mps 662 mmHg 71%
    08:00 +2°C° 0 mm 1 mps 662 mmHg 66%
    09:00 +3°C° 0 mm 1 mps 662 mmHg 62%
    10:00 +4°C° 0 mm 1 mps 663 mmHg 60%
    11:00 +4°C° 0 mm 2 mps 663 mmHg 58%
    12:00 +5°C° 0 mm 2 mps 663 mmHg 57%
    13:00 +5°C° 0 mm 2 mps 663 mmHg 60%
    14:00 +4°C° 0 mm 2 mps 663 mmHg 64%
    15:00 +5°C° 0 mm 1 mps 662 mmHg 68%
    16:00 +4°C° 0 mm 1 mps 662 mmHg 71%
    17:00 +3°C° 0 mm 1 mps 662 mmHg 73%
    18:00 +2°C° 0 mm 1 mps 662 mmHg 76%
    19:00 +1°C° 0 mm 2 mps 662 mmHg 72%
    20:00 +1°C° 0 mm 2 mps 662 mmHg 68%
    21:00 +1°C° 0 mm 2 mps 662 mmHg 64%
    22:00 +1°C° 0 mm 2 mps 661 mmHg 60%
    23:00 0°C° 0 mm 3 mps 661 mmHg 56%

    Tomorrow, 20 November, Tuesday

    Time Temperature Precipitation Wind Pressure Humidity
    00:00 0°C° 0 mm 3 mps 661 mmHg 52%
    01:00 0°C° 0 mm 3 mps 661 mmHg 49%
    02:00 +1°C° 0 mm 3 mps 661 mmHg 46%
    03:00 +1°C° 0 mm 3 mps 660 mmHg 43%
    04:00 +1°C° 0 mm 3 mps 660 mmHg 42%
    05:00 +1°C° 0 mm 3 mps 660 mmHg 42%
    06:00 +1°C° 0 mm 3 mps 659 mmHg 41%
    07:00 +3°C° 0 mm 3 mps 660 mmHg 40%
    08:00 +5°C° 0 mm 2 mps 660 mmHg 40%
    09:00 +7°C° 0 mm 2 mps 660 mmHg 39%
    10:00 +8°C° 0 mm 2 mps 659 mmHg 41%
    11:00 +9°C° 0 mm 2 mps 659 mmHg 42%
    12:00 +9°C° 0 mm 2 mps 658 mmHg 44%
    13:00 +9°C° 0 mm 2 mps 658 mmHg 48%
    14:00 +9°C° 0 mm 2 mps 658 mmHg 51%
    15:00 +10°C° 0 mm 1 mps 658 mmHg 55%
    16:00 +8°C° 0 mm 2 mps 657 mmHg 60%
    17:00 +7°C° 0 mm 3 mps 657 mmHg 65%
    18:00 +4°C° 0 mm 3 mps 657 mmHg 70%
    19:00 +4°C° 0 mm 3 mps 657 mmHg 69%
    20:00 +4°C° 0 mm 3 mps 657 mmHg 68%
    21:00 +5°C° 0 mm 2 mps 657 mmHg 67%
    22:00 +5°C° 0 mm 2 mps 657 mmHg 66%
    23:00 +5°C° 0 mm 2 mps 657 mmHg 66%

    Day after tomorrow, 21 November, Wednesday

    Time Temperature Precipitation Wind Pressure Humidity
    00:00 +5°C° 0 mm 2 mps 656 mmHg 66%
    01:00 +3°C° 0 mm 3 mps 657 mmHg 68%
    02:00 +3°C° 0 mm 3 mps 657 mmHg 70%
    03:00 +3°C° 0 mm 3 mps 657 mmHg 72%
    04:00 +2°C° 0 mm 3 mps 657 mmHg 72%
    05:00 +2°C° 0 mm 3 mps 657 mmHg 73%
    06:00 +2°C° 0 mm 3 mps 657 mmHg 73%
    07:00 +4°C° 0 mm 2 mps 657 mmHg 71%
    08:00 +5°C° 0 mm 2 mps 658 mmHg 68%
    09:00 +6°C° 0 mm 2 mps 658 mmHg 66%
    10:00 +5°C° 0 mm 3 mps 658 mmHg 66%
    11:00 +7°C° 0 mm 3 mps 658 mmHg 66%
    12:00 +7°C° 0 mm 3 mps 657 mmHg 65%
    13:00 +7°C° 0 mm 3 mps 657 mmHg 69%
    14:00 +5°C° 0 mm 3 mps 657 mmHg 72%
    15:00 +5°C° 0 mm 3 mps 657 mmHg 75%
    16:00 +5°C° 0 mm 2 mps 657 mmHg 80%
    17:00 +5°C° 0 mm 2 mps 657 mmHg 84%
    18:00 +4°C° 0 mm 2 mps 657 mmHg 88%
    19:00 +4°C° 0.1 mm 2 mps 656 mmHg 89%
    20:00 +4°C° 0.1 mm 2 mps 656 mmHg 89%
    21:00 +3°C° 0.1 mm 2 mps 656 mmHg 89%
    22:00 +4°C° 0.1 mm 1 mps 656 mmHg 90%
    23:00 +4°C° 0.1 mm 1 mps 656 mmHg 91%

    22 November, Thursday

    Time Temperature Precipitation Wind Pressure Humidity
    00:00 +4°C° 0.1 mm 1 mps 656 mmHg 92%
    01:00 +4°C° 0.1 mm 1 mps 656 mmHg 93%
    02:00 +4°C° 0.1 mm 1 mps 656 mmHg 93%
    03:00 +3°C° 0.1 mm 1 mps 655 mmHg 93%
    04:00 +3°C° 0 mm 1 mps 655 mmHg 93%
    05:00 +3°C° 0 mm 1 mps 655 mmHg 93%
    06:00 +3°C° 0 mm 1 mps 655 mmHg 92%
    07:00 +3°C° 0 mm 2 mps 656 mmHg 90%
    08:00 +3°C° 0 mm 2 mps 656 mmHg 88%
    09:00 +3°C° 0 mm 2 mps 656 mmHg 85%
    10:00 +4°C° 0 mm 2 mps 656 mmHg 84%
    11:00 +4°C° 0 mm 2 mps 656 mmHg 82%
    12:00 +5°C° 0 mm 2 mps 656 mmHg 81%
    13:00 +4°C° 0.1 mm 2 mps 656 mmHg 83%
    14:00 +4°C° 0.1 mm 2 mps 656 mmHg 85%
    15:00 +4°C° 0.1 mm 2 mps 656 mmHg 87%
    16:00 +4°C° 0.1 mm 2 mps 656 mmHg 89%
    17:00 +3°C° 0.1 mm 2 mps 656 mmHg 91%
    18:00 +3°C° 0.1 mm 2 mps 656 mmHg 93%
    19:00 +3°C° 0.1 mm 2 mps 656 mmHg 93%
    20:00 +3°C° 0.1 mm 2 mps 656 mmHg 93%
    21:00 +3°C° 0.1 mm 2 mps 657 mmHg 93%
    22:00 +2°C° 0.1 mm 2 mps 656 mmHg 92%
    23:00 +3°C° 0.1 mm 1 mps 656 mmHg 92%

    23 November, Friday

    Time Temperature Precipitation Wind Pressure Humidity
    00:00 +3°C° 0.1 mm 1 mps 656 mmHg 92%
    01:00 +3°C° 0.1 mm 1 mps 656 mmHg 92%
    02:00 +3°C° 0.1 mm 1 mps 656 mmHg 91%
    03:00 +3°C° 0.1 mm 1 mps 656 mmHg 91%
    04:00 +2°C° 0.1 mm 2 mps 656 mmHg 92%
    05:00 +2°C° 0.1 mm 2 mps 656 mmHg 92%
    06:00 +2°C° 0.1 mm 2 mps 656 mmHg 93%
    07:00 +2°C° 0.2 mm 2 mps 657 mmHg 91%
    08:00 +1°C° 0.2 mm 3 mps 657 mmHg 90%
    09:00 +1°C° 0.2 mm 3 mps 658 mmHg 89%
    10:00 +1°C° 0.2 mm 3 mps 658 mmHg 88%
    11:00 +1°C° 0.2 mm 3 mps 658 mmHg 87%
    12:00 +1°C° 0.2 mm 3 mps 658 mmHg 86%
    13:00 0°C° 0.2 mm 4 mps 659 mmHg 86%
    14:00 0°C° 0.2 mm 4 mps 659 mmHg 87%
    15:00 -1°C° 0.2 mm 4 mps 659 mmHg 88%
    16:00 -1°C° 0.2 mm 4 mps 660 mmHg 88%
    17:00 -2°C° 0.2 mm 4 mps 661 mmHg 89%
    18:00 -2°C° 0.2 mm 4 mps 662 mmHg 90%
    19:00 -2°C° 0.1 mm 4 mps 662 mmHg 90%
    20:00 -2°C° 0.1 mm 3 mps 663 mmHg 90%
    21:00 -2°C° 0.1 mm 3 mps 663 mmHg 90%
    22:00 -2°C° 0 mm 3 mps 663 mmHg 90%
    23:00 -3°C° 0 mm 2 mps 663 mmHg 91%

    24 November, Saturday

    Time Temperature Precipitation Wind Pressure Humidity
    00:00 -3°C° 0 mm 2 mps 664 mmHg 91%
    01:00 -3°C° 0 mm 2 mps 664 mmHg 91%
    02:00 -1°C° 0 mm 1 mps 664 mmHg 90%
    03:00 -1°C° 0 mm 1 mps 664 mmHg 90%
    04:00 -1°C° 0 mm 1 mps 664 mmHg 89%
    05:00 -1°C° 0 mm 1 mps 665 mmHg 89%
    06:00 -1°C° 0 mm 1 mps 665 mmHg 88%
    07:00 -2°C° 0 mm 2 mps 665 mmHg 84%
    08:00 -1°C° 0 mm 2 mps 666 mmHg 81%
    09:00 0°C° 0 mm 3 mps 666 mmHg 77%
    10:00 +1°C° 0 mm 3 mps 666 mmHg 75%
    11:00 +2°C° 0 mm 3 mps 666 mmHg 73%
    12:00 +3°C° 0 mm 4 mps 666 mmHg 71%
    13:00 +1°C° 0 mm 4 mps 665 mmHg 72%
    14:00 +1°C° 0 mm 4 mps 665 mmHg 74%
    15:00 +2°C° 0 mm 3 mps 665 mmHg 76%
    16:00 +2°C° 0 mm 3 mps 664 mmHg 77%
    17:00 +1°C° 0 mm 3 mps 664 mmHg 79%
    18:00 0°C° 0 mm 3 mps 664 mmHg 80%
    19:00 0°C° 0 mm 3 mps 664 mmHg 78%
    20:00 0°C° 0 mm 3 mps 664 mmHg 75%
    21:00 0°C° 0 mm 3 mps 663 mmHg 73%
    22:00 0°C° 0 mm 3 mps 663 mmHg 72%
    23:00 0°C° 0 mm 3 mps 663 mmHg 70%
    Show more